Location: Franzen
(48.6167°N, 15.3833°E)
Time: 05:05:29
(UTC+00:00)

Transit 2A Rocket - Visible Passes

Search period start: 01 August 2021 00:00
Search period end: 11 August 2021 00:00
Orbit: 589 x 913 km, 66.7° (Epoch: 31 July)

Date Brightness Start Highest point End Pass type
(mag) Time Alt. Az. Time Alt. Az. Time Alt. Az.
01 Aug 7.2 19:07:11 10° NNW 19:10:45 18° NNE 19:14:28 10° ENE visible
01 Aug 5.6 20:49:06 10° NNW 20:54:27 56° NE 20:57:42 25° ESE visible
01 Aug 6.2 22:32:00 10° NW 22:36:53 32° WSW 22:37:34 31° SW visible
02 Aug 6.1 20:06:34 10° NNW 20:11:38 38° NE 20:16:01 15° ESE visible
02 Aug 5.6 21:49:04 10° NW 21:54:24 49° WSW 21:55:53 40° SSW visible
03 Aug 6.5 19:24:05 10° NNW 19:28:42 28° NE 19:33:37 10° E visible
03 Aug 5.2 21:06:18 10° NW 21:11:49 77° WSW 21:14:15 37° SSE visible
03 Aug 7.2 22:50:40 10° WNW 22:53:41 15° WSW 22:54:08 15° WSW visible
04 Aug 5.3 20:23:40 10° NNW 20:29:10 72° NE 20:32:40 25° SE visible
04 Aug 6.7 22:06:58 10° WNW 22:11:23 24° WSW 22:12:33 22° SW visible
05 Aug 5.7 19:41:05 10° NNW 19:46:23 49° NE 19:51:06 15° ESE visible
05 Aug 6.1 21:23:51 10° NW 21:28:57 37° WSW 21:31:00 29° SSW visible
06 Aug 6.2 18:58:35 10° NNW 19:03:32 34° NE 19:08:50 10° ESE visible
06 Aug 5.5 20:40:58 10° NW 20:46:26 58° WSW 20:49:30 28° S visible
06 Aug 7.6 22:27:21 10° W 22:28:04 10° WSW 22:28:47 10° WSW visible
07 Aug 5.2 19:58:16 10° NW 20:03:50 88° SW 20:08:02 20° SSE visible
07 Aug 7.2 21:42:08 10° WNW 21:45:49 18° WSW 21:47:56 15° SW visible
08 Aug 5.4 19:15:38 10° NNW 19:21:08 63° NE 19:26:38 12° SE visible
08 Aug 6.7 20:58:43 10° NW 21:03:28 28° WSW 21:06:32 18° SSW visible
09 Aug 6.1 20:15:42 10° NW 20:21:00 44° WSW 20:25:11 17° S visible
10 Aug 5.5 19:32:53 10° NW 19:38:27 68° WSW 19:43:53 12° SSE visible
10 Aug 7.6 21:17:47 10° WNW 21:20:13 13° WSW 21:22:41 10° SW visible
